Theta_e
307 308 308 308 308 308 308 308 308 308 307 307 307 307 307 307 307 307 308 308 308 308 309 309 309 310 310 310 310 310 308 310 313 313 312 310 307 307 305 305 306 309 311 311 313 312 312 311 311 311 311 311 310 312 313 313 313 312 313 312 311 312 312 313 313 314 314 315 315 314 315 313 317 322 325 323 319 324 329 332 336 334 335 340 342 344 347 347
307 307 308 307 308 308 308 308 308 308 308 308 307 307 307 307 307 308 308 309 308 309 309 309 310 310 310 309 310 309 308 312 315 314 313 309 308 307 305 305 308 311 311 312 313 312 311 310 310 310 310 311 310 311 312 313 312 311 314 312 311 313 314 313 313 314 314 315 314 315 315 313 317 323 326 324 321 326 331 334 336 335 339 342 343 345 347 347
307 307 307 307 308 309 309 309 308 308 308 308 308 307 307 307 307 307 308 308 308 309 309 310 310 310 309 309 310 308 310 314 315 315 314 312 311 309 305 306 309 311 312 313 313 311 311 310 310 310 310 311 311 310 311 311 312 312 313 311 312 314 314 313 313 313 314 314 314 314 314 314 318 323 325 326 326 328 330 333 335 337 340 342 342 344 347 347
307 308 308 308 308 309 309 309 309 309 309 309 309 308 307 307 307 307 308 308 309 309 309 310 309 309 309 309 308 308 312 316 315 315 315 313 313 310 306 307 310 311 313 313 311 310 310 309 310 310 310 311 311 310 311 311 311 312 312 311 313 313 312 313 313 313 313 313 313 314 314 315 319 322 325 327 328 327 328 332 335 337 340 342 341 343 347 347
308 308 308 308 309 309 309 309 309 309 309 309 309 308 308 308 308 308 308 308 308 309 309 309 309 309 309 308 308 310 315 316 314 316 315 312 310 309 307 308 311 312 312 311 310 310 309 310 310 309 310 311 310 310 311 311 311 311 311 312 313 312 312 313 313 313 313 313 313 313 314 314 317 321 325 327 327 325 329 333 335 336 339 342 342 342 346 346
308 308 308 309 309 309 309 309 309 310 310 309 309 309 308 309 308 308 308 307 308 308 308 308 309 308 308 307 310 313 317 314 314 315 314 309 306 308 307 310 311 311 311 310 311 310 309 310 309 309 310 310 310 310 311 311 310 310 311 312 312 312 312 312 313 312 313 313 313 314 314 313 315 320 325 327 326 325 328 333 335 337 338 342 343 342 345 344
308 308 308 308 309 309 309 310 310 310 310 310 310 309 309 309 308 308 307 307 307 307 307 308 308 307 306 308 313 316 317 313 314 315 312 306 306 306 308 311 311 311 311 312 311 309 309 309 309 310 309 310 310 310 310 311 310 311 311 312 312 312 312 312 312 313 313 313 313 313 314 313 314 320 325 327 326 323 325 331 336 339 340 343 342 342 345 344
307 308 308 308 309 309 309 310 310 310 310 310 310 310 310 309 309 308 308 308 307 306 307 307 307 305 305 310 316 318 314 312 314 316 310 304 306 307 310 312 311 312 312 312 311 309 309 309 310 310 309 310 310 310 310 310 310 310 310 311 311 312 312 313 313 313 313 313 313 313 313 313 315 320 325 327 325 323 325 330 336 339 340 341 341 342 344 343
307 307 308 308 308 308 309 309 309 310 310 310 310 310 310 309 309 308 308 307 304 304 305 307 305 303 306 311 317 315 312 312 313 314 309 307 308 308 312 312 311 313 313 313 311 309 310 310 311 311 311 311 310 311 310 310 311 310 311 311 312 312 313 313 313 313 313 313 313 313 314 314 314 318 323 326 325 324 327 332 336 339 339 340 341 343 343 342
307 307 308 308 308 308 308 308 309 310 310 311 310 310 310 309 309 308 306 304 303 303 304 305 303 302 308 314 316 314 311 312 313 311 310 309 310 311 312 313 312 313 313 312 310 310 312 312 312 312 312 311 311 312 311 311 311 312 312 312 312 313 313 313 312 313 313 313 313 314 315 314 314 318 321 323 325 327 329 333 337 339 340 340 340 342 343 343
306 307 307 308 308 308 308 308 309 310 310 310 310 310 310 310 309 308 306 303 303 304 305 305 302 303 311 314 313 314 311 312 312 309 309 309 311 312 312 313 313 314 313 311 310 311 312 313 313 313 313 311 311 312 312 311 312 312 312 312 313 313 313 312 312 313 313 313 313 314 315 314 315 316 318 321 324 327 329 333 337 338 341 340 339 342 343 342
306 306 307 308 308 308 309 309 309 310 310 310 310 310 310 310 310 309 307 305 304 304 304 304 303 307 312 313 312 312 310 312 311 308 309 308 311 312 311 312 312 313 312 311 311 311 312 313 313 313 312 312 312 312 312 312 312 312 312 312 313 313 313 313 313 313 313 313 313 314 314 314 315 314 316 320 322 326 329 333 335 338 340 340 340 341 341 341
306 306 306 306 307 308 309 308 308 309 309 310 310 309 309 309 310 310 308 306 305 303 304 303 305 309 314 315 312 310 310 312 310 308 309 309 310 310 310 309 309 310 310 310 311 310 311 311 312 312 313 312 313 312 312 312 312 312 312 312 313 312 312 313 313 313 314 313 312 313 311 312 316 314 316 321 322 326 329 332 334 337 339 340 341 340 340 340
305 305 304 305 307 307 306 306 307 308 308 309 310 310 309 308 310 311 309 307 306 304 304 304 307 311 317 315 311 309 311 313 310 309 309 309 310 309 309 308 308 308 308 310 311 311 311 311 312 312 312 313 313 312 312 312 312 312 312 312 313 310 310 314 314 314 314 312 313 314 310 312 315 313 316 320 322 325 327 330 333 336 338 340 341 341 340 340
305 304 303 305 305 304 304 305 306 307 307 307 308 309 308 308 310 311 309 306 306 304 305 307 309 313 317 313 313 311 312 314 313 312 310 309 310 310 310 309 309 308 309 310 310 311 312 311 312 312 313 312 312 312 313 313 312 313 311 310 311 310 311 314 315 315 315 313 314 314 310 313 315 313 316 320 322 324 326 328 331 334 336 338 339 340 339 338
304 303 303 305 303 303 303 304 305 305 305 306 307 308 309 309 310 311 309 306 305 304 307 313 314 314 316 313 315 315 315 316 315 314 312 311 311 311 311 311 310 310 310 310 310 311 312 312 312 312 312 312 312 312 312 311 311 313 311 309 310 310 310 313 314 316 315 314 314 313 312 314 315 313 315 319 321 323 324 326 331 333 334 336 337 337 337 337
303 302 303 303 302 302 303 304 304 304 304 305 308 311 312 312 311 310 308 306 306 305 309 315 314 315 316 312 314 315 316 316 314 314 313 312 311 311 311 311 311 311 311 311 311 312 312 313 312 312 313 313 313 312 311 310 309 311 312 311 311 311 310 311 313 316 315 315 315 314 314 314 315 314 315 318 321 322 323 325 329 332 333 334 335 335 336 336
302 301 303 303 301 302 303 304 303 303 304 305 310 313 312 311 310 309 308 307 307 309 311 312 313 316 315 311 314 315 315 315 314 314 313 312 311 311 312 312 312 312 311 311 312 312 312 312 313 314 314 313 314 313 310 310 310 311 311 311 311 311 311 311 313 316 315 315 315 315 314 315 315 314 314 316 319 322 323 325 328 330 331 333 333 333 333 334
302 302 303 301 301 302 302 303 303 303 304 307 312 313 312 311 311 311 312 311 313 317 317 314 315 316 313 313 315 314 315 314 312 313 314 313 312 312 313 312 312 311 311 312 312 312 313 313 314 313 313 314 314 313 312 311 312 312 312 312 311 310 311 313 314 316 316 315 315 315 315 315 316 315 314 315 318 322 323 325 328 328 329 331 332 332 332 333
303 302 302 301 301 301 302 303 303 304 304 308 312 315 316 317 318 318 316 314 315 316 315 313 314 314 314 314 314 315 315 313 313 313 314 314 313 313 312 312 312 311 311 313 313 314 314 313 313 312 314 315 315 316 316 315 314 314 314 312 311 310 311 314 316 316 317 316 315 316 316 316 316 316 316 315 317 320 323 326 327 326 327 328 329 330 332 333
302 301 301 300 300 301 302 303 303 305 307 308 311 318 318 316 317 317 315 315 316 315 315 314 314 314 315 315 315 315 315 313 314 313 313 314 314 313 311 311 312 312 312 313 314 315 314 313 313 314 315 316 317 318 317 316 316 315 314 312 311 311 311 315 316 316 317 316 315 316 316 315 317 317 317 316 316 318 321 324 326 325 325 325 327 329 331 332
302 302 301 300 301 302 303 304 305 307 309 309 312 318 315 314 315 315 314 315 316 316 315 315 314 314 314 315 315 314 315 314 313 312 312 313 313 312 311 311 311 312 313 312 313 313 312 312 314 315 316 318 318 319 318 318 318 315 314 312 311 312 312 315 317 317 316 315 315 317 315 315 318 317 317 317 316 318 320 322 324 325 325 324 324 326 328 330
302 301 301 302 303 304 304 305 306 308 309 311 316 316 315 315 316 315 314 315 317 316 315 315 315 314 314 315 315 315 315 314 313 313 312 312 312 312 311 311 311 312 312 312 312 311 310 312 315 315 316 318 319 320 319 318 317 315 314 312 311 313 313 312 316 319 318 317 316 316 314 315 318 317 317 318 318 321 322 320 322 322 323 323 323 324 325 328
302 301 302 303 304 305 305 306 309 309 309 312 315 314 314 314 316 316 315 317 318 317 316 316 315 314 314 315 316 316 315 315 315 314 313 312 312 312 311 312 311 311 311 312 312 311 311 314 315 315 316 317 319 320 320 316 314 316 316 313 313 315 314 312 316 319 319 319 318 316 312 312 316 317 317 318 318 319 320 318 319 319 319 320 322 324 325 326
303 301 302 304 304 306 305 307 311 311 310 313 314 313 314 315 316 316 317 320 319 316 317 316 315 315 315 316 316 316 316 315 315 315 314 313 312 312 312 311 311 312 311 310 311 311 312 316 315 315 316 316 317 318 318 316 313 314 316 315 315 316 316 316 317 316 314 315 318 316 310 310 314 316 316 318 317 317 318 317 317 318 317 317 319 321 323 325
304 302 303 304 305 306 306 311 315 312 311 314 314 313 314 315 316 316 318 320 317 314 316 315 315 315 315 316 316 316 316 314 312 314 313 312 312 312 311 311 311 312 311 311 312 311 312 314 314 315 316 316 316 315 316 317 312 312 316 316 315 316 316 317 317 314 311 311 317 317 311 309 312 315 317 317 317 317 317 318 316 316 317 316 317 318 319 322
305 303 303 303 305 307 309 314 314 311 312 314 314 313 315 316 317 317 319 318 315 314 314 314 313 312 313 315 315 315 314 312 310 312 312 312 312 311 312 312 311 311 311 312 312 312 313 314 314 316 317 315 314 314 317 317 312 314 319 317 315 316 317 318 316 314 312 313 316 317 313 310 310 313 317 317 316 316 317 318 317 316 316 316 317 317 318 319
306 304 303 303 305 306 309 313 314 313 313 314 314 314 315 316 316 320 321 317 315 314 313 313 311 310 311 312 313 314 313 312 311 311 311 311 311 311 312 312 311 311 312 312 311 313 315 315 314 315 314 313 313 313 317 317 315 316 319 317 315 317 317 318 316 313 314 314 312 313 314 312 309 312 317 315 314 315 316 317 317 317 317 317 317 317 317 317
306 305 304 303 304 305 306 309 313 315 314 314 314 314 316 317 318 321 319 315 315 312 311 312 310 310 310 311 312 312 312 312 312 310 309 310 310 310 311 311 312 311 311 311 312 313 314 313 313 312 311 312 313 315 316 317 318 318 317 316 316 316 317 318 315 312 314 314 311 313 314 312 310 311 314 314 313 315 316 316 317 317 317 317 317 317 317 316
307 306 305 305 306 306 306 308 310 312 313 314 314 315 317 320 321 321 317 315 315 312 311 311 310 309 310 311 311 311 312 312 311 310 310 310 310 310 309 310 311 311 312 312 312 313 312 311 312 311 311 312 313 315 315 316 317 317 316 315 315 316 316 316 315 312 313 313 312 314 314 312 310 310 312 315 315 316 317 317 317 317 316 316 317 316 315 315
308 306 305 306 308 309 311 312 311 311 313 315 315 317 320 321 320 319 317 315 313 311 311 311 309 309 310 312 312 310 311 311 310 311 311 310 311 310 310 310 311 312 312 312 312 312 311 311 312 311 311 312 312 313 313 314 315 315 316 315 314 314 315 314 313 313 312 312 313 314 314 313 310 310 313 316 316 317 318 317 317 316 315 315 316 315 315 315
308 307 306 306 308 310 313 314 313 312 315 316 316 319 321 318 317 318 315 313 313 312 311 310 309 309 310 311 310 310 311 311 310 311 311 311 312 312 311 311 312 311 310 311 312 312 312 312 312 311 311 311 311 311 313 314 314 315 315 314 313 313 314 313 312 312 311 312 314 314 313 313 311 311 315 317 316 316 316 315 314 314 314 315 315 315 315 315
309 308 308 309 309 311 313 314 314 314 316 317 317 318 317 314 315 318 315 313 313 311 309 310 309 309 310 310 310 310 310 310 310 311 311 311 312 312 310 310 311 311 311 311 311 310 311 312 311 311 311 311 311 311 312 313 314 314 313 313 313 313 314 314 312 310 310 312 315 314 314 312 310 313 317 317 315 314 314 313 312 312 313 314 314 314 316 316
309 308 308 311 312 313 314 315 316 315 316 318 318 316 313 310 313 318 317 313 311 310 309 310 309 309 310 310 309 309 310 310 310 310 311 311 312 312 311 310 310 311 312 311 311 310 309 310 311 312 311 311 311 311 312 313 313 314 314 313 312 312 313 313 312 310 310 312 314 314 314 312 311 314 316 315 314 313 311 311 311 312 313 314 315 315 316 317
308 309 308 311 314 314 314 316 317 316 317 319 316 313 311 308 312 316 315 312 311 311 310 309 309 311 310 309 309 308 309 310 309 310 311 311 312 312 313 312 311 311 312 311 311 310 309 309 311 311 310 310 311 312 312 312 312 314 314 312 312 312 312 312 313 313 311 312 314 313 313 312 313 315 314 313 312 311 311 311 311 312 313 314 315 316 317 317
311 313 311 315 316 313 313 315 317 317 318 318 313 309 309 309 312 314 312 311 310 311 311 310 310 311 310 310 309 308 308 309 310 310 310 310 312 312 312 312 311 311 312 312 312 311 309 310 311 311 310 310 311 311 311 311 311 313 312 311 312 313 312 312 314 314 311 312 313 312 312 312 313 315 313 312 312 311 311 311 311 313 313 314 315 316 317 317
315 318 316 316 314 310 312 316 318 318 317 315 311 309 310 311 312 312 310 309 309 309 311 312 312 311 311 311 309 309 309 309 309 310 309 309 311 312 311 311 310 310 312 312 313 313 311 311 312 311 311 311 310 310 311 310 311 312 311 311 312 313 312 313 313 313 312 313 313 311 313 312 311 313 313 313 312 312 311 311 312 313 313 314 315 315 316 317
315 320 316 313 309 308 313 316 317 318 316 313 310 311 312 311 310 310 308 308 309 309 311 313 312 311 311 311 310 309 309 310 310 310 309 309 311 311 311 311 310 309 310 311 313 313 312 311 311 311 311 311 310 310 311 310 310 311 311 312 312 312 312 312 313 313 313 313 313 312 312 311 309 312 313 313 313 313 312 311 312 312 313 314 315 315 316 317
315 318 314 311 307 307 312 315 317 317 315 312 310 311 313 310 308 308 307 308 309 310 311 312 312 311 310 310 310 309 309 310 309 309 309 309 311 311 310 310 310 309 309 310 312 313 313 312 312 311 312 311 311 311 310 310 311 311 311 312 312 312 312 312 312 313 312 313 313 312 312 311 310 312 313 313 314 313 312 312 312 312 313 314 315 316 316 316
315 313 312 309 306 308 313 315 316 314 313 312 311 312 312 310 308 306 306 308 308 310 311 311 311 311 311 310 310 309 309 309 309 308 308 308 309 310 309 309 310 310 309 309 311 312 312 312 311 311 312 311 311 311 311 311 312 311 311 311 312 312 312 312 312 311 311 312 313 313 313 311 311 314 314 313 314 314 313 313 312 312 313 314 315 316 315 315
312 309 312 309 305 309 313 313 314 313 313 313 312 312 312 310 308 306 306 307 308 308 309 310 311 311 311 310 310 309 309 309 308 308 308 307 307 309 309 308 309 309 309 310 311 312 311 311 311 311 311 311 311 312 311 311 312 312 311 311 311 312 311 312 312 311 311 311 311 313 313 312 313 316 315 313 314 314 313 312 312 312 314 315 315 315 315 314
310 306 311 308 304 309 312 311 312 314 313 312 311 311 310 309 308 307 306 307 307 307 308 309 310 310 310 310 310 309 308 309 308 307 308 307 307 309 308 306 307 309 309 310 311 313 313 311 309 310 310 309 311 311 310 310 311 312 312 311 312 312 312 312 312 311 311 311 311 311 312 312 315 317 316 314 314 313 312 312 312 313 314 315 315 314 314 313
308 306 310 308 305 309 312 310 311 312 311 310 309 308 307 307 308 307 307 307 308 308 308 309 309 309 310 310 309 309 308 309 308 307 308 307 307 308 307 306 308 309 309 310 311 313 313 311 308 309 309 309 310 310 310 310 311 311 312 312 312 312 312 313 313 312 312 312 311 312 312 313 315 316 315 314 313 311 311 312 312 313 315 315 314 314 314 313
306 308 311 308 306 309 311 310 309 310 311 311 310 308 307 306 307 308 308 308 308 308 310 310 308 308 309 308 308 309 308 308 308 307 307 307 307 307 306 306 308 310 310 312 313 312 310 310 309 309 308 309 309 310 310 310 311 312 313 313 312 311 312 314 313 313 313 312 311 312 312 312 314 314 313 312 311 310 310 310 311 313 314 314 313 313 313 313
307 310 310 308 309 310 310 310 310 310 311 312 312 310 308 307 307 307 308 307 306 307 309 309 307 307 307 307 308 308 307 307 307 307 307 307 307 306 305 306 308 310 312 312 313 312 309 309 311 309 307 308 308 309 310 310 310 311 312 312 311 311 312 314 313 312 312 313 312 312 312 313 314 313 312 311 311 311 310 310 310 312 313 313 313 313 313 313
307 309 308 308 309 309 309 309 309 310 310 311 311 310 310 309 307 305 305 306 305 306 308 307 306 307 308 308 308 308 307 307 307 307 307 307 308 306 305 305 306 309 312 311 310 310 310 310 311 309 308 308 308 308 309 310 310 310 310 311 311 311 312 312 311 311 312 312 312 312 312 313 313 312 312 312 311 311 311 310 310 312 313 313 314 313 312 312
307 308 308 308 308 308 308 308 308 309 309 310 310 310 310 310 308 306 305 306 305 305 307 306 306 308 308 309 310 310 309 308 307 308 308 308 308 306 304 305 305 307 310 310 308 309 310 310 310 311 310 309 308 308 309 309 309 309 309 310 311 311 312 311 311 311 312 311 311 312 313 312 312 311 311 312 312 312 311 310 310 312 313 313 313 312 312 311
307 307 306 306 307 308 307 307 307 308 308 308 309 310 310 309 309 308 306 305 305 305 307 307 306 307 307 308 310 310 309 309 309 310 310 308 308 307 305 305 305 305 307 308 307 309 310 309 310 311 310 308 308 308 308 308 308 308 309 310 311 311 312 312 311 311 311 311 311 311 312 312 311 310 310 310 311 312 311 311 311 312 312 312 312 311 311 311
306 306 305 306 307 307 307 306 307 307 308 308 308 308 309 309 308 306 305 306 307 305 305 307 307 306 306 306 308 309 310 310 310 310 310 309 308 308 307 307 306 305 306 306 307 308 308 308 309 309 308 308 307 307 308 308 308 308 308 309 310 310 311 312 312 311 311 311 311 311 313 313 311 309 310 311 312 311 311 312 312 312 312 311 311 311 310 310
304 304 305 306 306 305 306 306 306 307 307 308 308 307 307 308 307 305 303 305 308 307 306 308 307 305 305 306 307 309 309 309 310 310 309 309 308 308 308 308 306 306 305 306 307 308 306 307 310 308 307 307 307 306 307 307 307 307 307 308 309 309 310 311 311 312 312 312 312 312 313 313 310 309 310 312 312 311 312 313 312 311 311 311 310 310 310 309
302 302 302 305 305 304 305 305 305 306 306 307 308 306 306 306 305 304 302 302 304 306 305 307 307 306 305 306 307 308 306 305 307 307 306 307 307 306 306 306 305 306 306 306 307 307 306 307 308 307 306 307 306 306 306 306 306 306 306 307 308 308 309 310 310 311 312 312 311 311 312 311 310 309 310 311 311 310 310 311 311 311 311 310 310 310 310 309
300 301 301 304 304 303 303 304 304 304 305 305 305 305 305 304 303 303 303 301 301 302 302 304 307 306 306 307 307 304 303 303 304 304 303 304 304 303 304 304 303 304 306 306 306 306 306 306 306 306 306 306 305 305 305 305 305 305 306 308 308 308 308 309 309 310 310 311 310 310 310 310 310 310 309 309 310 309 310 311 311 311 311 310 310 310 309 308
Wind_Speed
10 9 9 9 9 9 9 9 9 8 8 8 8 8 8 8 8 8 8 7 7 7 6 7 8 8 9 9 10 12 13 11 10 9 11 10 6 7 5 2 10 15 12 9 9 9 9 9 8 8 8 6 5 4 6 5 4 4 5 6 5 5 3 0 2 1 4 3 4 7 7 11 9 1 2 4 10 9 11 9 6 6 4 5 13 21 25 24
10 10 9 9 9 9 9 9 9 8 8 8 8 8 8 8 8 7 7 7 7 7 7 7 8 9 9 9 10 12 13 11 12 11 12 10 7 8 5 5 12 16 13 10 10 10 9 8 8 9 8 5 4 5 6 5 5 6 4 5 6 4 1 2 3 3 5 6 8 9 8 10 8 2 1 6 11 12 12 11 9 9 9 11 17 21 24 24
9 10 9 9 9 9 9 9 9 8 8 8 8 8 8 8 8 7 7 7 7 7 7 8 8 9 9 9 10 11 12 11 10 5 5 4 6 9 7 10 15 15 11 8 8 8 5 5 8 9 8 5 4 5 7 6 5 6 4 6 5 2 2 2 3 5 6 8 10 9 9 9 4 1 3 6 10 13 13 11 13 13 13 15 17 19 23 23
10 10 9 9 9 9 9 9 9 9 9 8 8 9 8 8 8 8 8 7 7 7 8 8 8 9 9 10 11 9 9 9 3 4 0 5 5 9 12 13 15 13 9 7 6 5 4 6 8 8 7 6 5 5 7 6 4 4 5 7 3 1 3 4 3 5 6 8 9 9 10 8 2 2 5 5 8 11 11 10 12 14 16 17 17 18 21 22
10 10 9 9 10 9 9 9 9 9 9 9 9 9 9 8 8 8 8 8 8 7 8 8 8 9 9 10 9 6 6 4 3 4 3 6 4 11 17 17 15 10 8 9 7 6 6 7 7 7 7 5 6 7 6 6 4 3 7 8 5 3 5 4 3 5 6 7 8 9 9 6 3 5 5 7 7 5 5 7 7 11 15 17 18 18 19 19
10 10 10 10 10 10 9 9 9 9 9 9 9 8 9 8 8 8 8 8 7 7 7 7 8 9 9 9 6 5 7 1 4 3 5 3 5 16 20 17 14 11 10 9 7 7 7 7 8 7 6 5 7 7 4 6 5 6 7 6 6 6 6 5 6 5 5 8 8 8 7 6 6 5 4 8 4 4 3 5 5 9 13 16 17 17 18 18
11 11 11 10 10 10 10 9 9 9 8 8 8 8 8 8 8 8 7 7 7 7 7 7 8 8 8 7 4 7 5 4 6 5 3 4 12 19 18 15 12 12 10 8 7 7 7 8 8 5 5 5 6 6 3 6 8 8 6 4 5 6 6 7 6 5 6 9 9 8 7 7 7 2 3 7 2 6 3 6 7 10 12 15 16 15 17 18
11 11 11 11 10 10 10 9 9 9 8 7 7 7 8 8 8 7 7 7 7 7 6 6 7 6 7 6 6 6 1 6 6 4 3 11 16 19 16 13 11 11 10 8 6 6 7 7 5 5 6 3 4 5 4 6 9 9 7 4 5 5 6 7 6 7 8 8 7 6 7 5 3 1 2 5 4 4 3 7 10 12 12 13 15 15 16 16
11 11 11 11 11 10 10 9 9 8 8 8 7 7 7 7 7 7 7 7 6 6 5 6 5 5 6 5 8 3 5 6 4 1 8 14 17 18 13 10 11 10 9 6 4 6 6 4 3 3 3 3 4 5 5 7 5 6 7 4 5 6 6 5 6 7 5 4 4 5 4 1 1 2 3 4 5 4 4 7 12 14 14 13 13 15 15 16
12 12 12 11 10 10 9 8 8 8 8 8 7 7 7 7 7 6 6 6 5 4 4 5 4 4 4 6 8 1 5 4 1 4 10 16 17 16 10 8 11 9 8 6 6 5 3 1 2 1 2 3 4 3 4 6 0 2 6 6 7 8 5 5 5 5 3 2 4 5 2 3 4 5 3 5 4 3 5 8 11 13 14 13 14 15 14 15
12 11 11 10 9 9 8 7 8 8 8 8 8 8 7 7 7 5 6 5 4 4 4 5 4 4 5 8 5 3 4 2 3 5 10 16 15 12 7 7 9 8 7 6 6 4 0 2 1 3 2 3 5 4 4 3 2 2 6 7 8 6 3 4 4 4 4 3 2 4 2 4 5 3 3 5 4 4 6 8 11 12 13 14 15 15 12 13
12 11 10 9 8 8 7 7 7 8 8 8 8 8 7 7 6 5 5 5 4 4 3 4 4 4 5 7 2 5 4 1 4 6 9 14 11 7 5 6 7 6 5 6 6 4 2 1 4 4 1 2 5 5 3 1 4 5 5 6 6 6 4 3 3 3 4 3 0 4 4 7 5 4 6 4 3 5 7 9 11 11 12 13 14 14 12 14
11 11 9 8 8 7 7 6 7 7 7 8 8 8 8 7 6 5 5 4 3 3 3 3 3 3 6 2 4 3 2 2 5 7 9 10 8 6 5 4 5 5 3 3 3 2 4 3 6 4 1 3 2 2 1 2 5 5 5 6 4 6 6 5 4 5 5 2 1 6 6 7 7 6 6 4 4 6 7 8 10 10 11 12 13 12 13 14
11 10 9 8 6 6 6 6 7 7 7 7 8 8 7 7 6 5 5 4 3 3 2 2 3 3 5 2 5 2 1 3 6 7 9 10 7 6 5 4 4 4 3 1 1 1 4 4 6 4 2 4 1 1 4 5 5 4 4 4 4 5 6 8 3 4 6 2 2 7 6 4 7 6 5 3 4 6 6 8 9 9 10 10 11 11 12 13
11 10 9 7 6 6 6 6 7 7 7 7 8 8 7 6 5 4 4 3 3 2 1 2 3 4 4 4 4 2 1 3 6 7 9 10 8 6 6 6 5 4 3 2 1 1 2 4 6 4 2 2 3 5 5 4 4 4 4 4 4 4 6 9 5 2 4 4 1 6 6 3 6 5 4 2 3 5 5 7 8 9 10 10 10 10 11 12
10 9 8 6 5 6 6 6 6 6 7 6 6 6 5 5 4 4 4 2 3 1 1 3 2 5 4 4 4 2 3 3 3 5 8 9 6 5 7 7 6 6 5 3 3 3 3 4 4 3 2 4 5 5 4 4 5 4 4 2 3 4 5 8 6 5 3 3 3 5 7 2 5 5 4 2 3 5 5 6 8 9 9 9 9 10 10 11
10 9 8 6 6 6 6 5 6 6 5 5 5 3 2 3 3 3 2 2 2 1 1 4 3 5 2 4 5 4 3 1 2 3 7 8 5 5 7 7 6 6 6 4 4 5 4 4 2 1 3 3 2 4 4 5 4 4 4 1 2 3 2 5 7 5 2 3 3 3 7 2 4 3 3 3 3 5 6 6 7 7 8 8 8 9 10 10
9 8 7 7 6 6 5 5 5 5 4 3 2 1 1 1 2 1 1 2 1 2 4 4 4 4 3 5 3 2 2 1 2 3 6 8 6 6 5 4 4 6 8 6 5 6 5 4 3 3 4 3 3 5 4 2 1 3 4 2 3 3 3 2 5 5 2 3 3 3 7 2 2 3 3 3 4 5 6 5 5 6 7 7 8 10 11 11
9 8 7 6 6 6 4 4 5 4 3 1 2 2 2 2 2 2 4 4 3 3 1 3 4 3 2 5 2 3 1 1 3 5 7 8 7 6 5 3 4 6 7 5 5 5 3 3 4 4 4 2 0 3 4 3 3 1 2 3 3 4 4 2 5 6 4 3 4 3 4 2 0 2 4 4 3 6 7 5 4 5 6 7 8 9 10 11
9 7 6 6 5 4 3 3 4 3 2 2 3 2 1 1 1 3 5 6 5 4 4 1 3 4 0 3 2 2 1 4 5 6 8 9 8 8 6 4 5 6 6 3 4 3 2 4 5 2 1 3 2 2 3 3 3 3 3 4 4 4 4 4 5 4 4 5 3 2 3 3 1 1 4 4 3 6 7 7 6 6 6 7 8 9 10 10
8 6 6 5 4 4 3 3 2 2 1 4 5 4 1 3 3 2 2 4 4 3 5 3 3 6 4 2 3 2 1 5 6 7 8 8 9 9 6 5 7 6 3 1 2 2 3 5 2 1 3 3 1 1 1 1 2 4 5 5 5 6 3 5 4 3 3 5 3 2 5 5 2 0 3 4 5 7 8 8 8 8 8 7 8 10 10 9
6 6 5 4 4 3 2 2 1 1 2 5 6 4 3 4 4 3 4 4 3 2 4 3 4 6 5 4 3 3 4 5 8 8 7 8 9 7 5 6 7 3 4 3 3 4 5 4 3 4 3 3 2 3 4 3 3 5 5 5 5 5 3 5 5 3 1 4 2 1 6 6 3 2 3 5 5 5 5 6 7 7 8 8 9 9 9 10
6 5 4 4 3 3 2 2 2 2 3 4 4 1 3 2 3 3 5 5 1 3 3 4 4 4 4 3 3 5 6 4 6 9 9 9 7 4 4 6 4 2 5 7 5 4 3 2 6 5 3 4 4 4 6 4 4 5 5 6 4 2 3 4 6 5 1 2 4 2 6 6 5 5 5 5 4 2 2 3 4 5 6 7 7 7 8 10
6 4 4 3 3 2 2 3 2 3 5 4 4 1 2 2 3 4 5 4 1 3 1 1 2 3 2 1 4 7 4 0 2 6 10 10 5 3 4 3 3 4 5 5 5 6 0 7 6 3 3 5 4 6 7 6 5 5 5 7 4 2 5 4 3 4 3 2 3 5 7 7 7 8 7 6 5 4 4 4 4 4 5 6 7 8 9 9
6 4 4 3 3 3 2 2 3 4 5 5 4 1 2 5 4 5 5 4 2 4 3 3 2 2 2 2 5 5 2 2 1 3 8 9 4 3 3 1 3 4 3 3 5 5 2 6 2 4 4 5 5 6 7 6 4 5 7 9 6 4 5 4 1 3 5 5 2 4 7 4 4 7 6 6 6 7 6 5 5 4 5 6 7 8 8 9
6 4 4 3 4 4 2 2 2 3 6 5 3 1 5 9 4 6 5 3 4 4 3 5 3 3 4 3 5 4 4 4 2 2 5 5 2 3 2 3 3 1 2 3 4 2 3 4 3 4 4 5 6 5 6 6 6 3 6 9 9 6 6 5 5 5 6 3 3 2 7 3 3 6 5 5 6 7 7 6 4 3 4 5 5 6 6 7
6 4 5 4 5 5 2 1 2 3 5 2 2 3 8 8 2 6 4 3 5 2 2 4 1 2 2 1 3 4 2 5 5 4 4 3 3 3 4 4 3 2 2 3 2 1 4 5 5 4 5 6 7 5 5 7 8 1 3 7 9 8 7 7 6 6 5 2 2 5 5 5 5 4 6 5 6 7 7 6 5 3 2 2 3 4 5 6
7 4 5 5 7 7 4 3 2 4 2 3 2 6 8 4 5 5 4 2 4 0 2 3 2 1 1 1 4 5 1 2 3 4 3 4 4 4 5 4 2 3 4 4 2 4 4 5 6 6 6 6 6 0 3 9 7 1 2 4 6 6 6 6 6 5 2 3 5 6 4 6 7 4 5 5 7 8 7 5 4 3 2 0 3 4 6 7
9 5 5 6 7 8 7 5 5 4 2 2 5 8 6 3 6 4 5 1 2 1 1 2 3 2 1 3 4 3 1 1 1 4 5 5 4 3 3 2 2 2 5 6 4 2 3 2 2 5 6 6 2 4 1 7 4 2 3 4 5 5 5 5 6 5 3 5 8 4 5 5 6 5 5 5 6 5 3 3 3 3 3 2 3 4 6 6
12 6 6 6 6 5 6 6 6 4 1 3 6 7 3 5 4 5 5 2 1 3 1 1 2 1 3 6 5 3 3 2 3 4 5 4 5 3 1 1 3 4 4 6 6 1 3 2 0 5 7 4 1 4 2 2 1 4 6 6 6 6 5 5 5 4 4 7 5 4 4 4 6 5 4 1 1 2 1 0 2 4 5 6 6 6 7 7
13 5 6 7 5 4 5 3 3 3 2 5 6 4 5 4 4 5 4 1 1 4 3 2 2 0 3 5 4 4 5 4 3 4 5 4 6 6 3 3 3 5 5 6 5 3 5 6 4 4 5 3 2 3 2 1 3 5 6 6 6 5 5 5 5 4 6 7 2 5 4 5 7 4 2 3 4 4 2 2 4 6 7 8 7 8 8 8
14 4 5 6 6 6 5 1 1 3 3 6 5 4 5 4 5 5 2 2 3 3 3 2 3 2 3 3 5 4 4 4 2 1 1 3 4 2 1 2 1 4 5 3 3 3 5 5 4 4 5 6 7 6 4 4 6 6 7 6 7 6 5 6 6 6 7 3 5 5 4 5 7 3 4 5 4 4 2 3 4 6 7 7 7 8 8 7
14 3 5 6 6 6 6 4 4 5 4 5 5 5 4 5 5 2 2 4 1 2 2 1 2 1 3 4 5 3 2 3 2 0 1 2 2 3 2 2 2 4 3 1 2 4 3 5 6 5 5 6 9 7 5 5 7 8 7 6 7 6 6 7 7 7 6 2 6 4 3 5 7 1 5 4 4 4 2 2 3 4 5 6 7 7 7 7
13 3 4 5 5 5 5 6 7 6 5 5 5 5 5 6 2 0 2 3 3 2 2 1 1 2 1 2 4 2 1 3 2 1 2 3 3 3 3 3 1 4 3 3 3 4 4 2 5 3 3 5 9 8 5 3 5 8 6 6 7 6 6 7 6 7 7 2 5 5 3 5 5 2 5 4 4 4 3 3 2 2 3 4 5 6 7 7
11 3 3 3 3 3 4 5 5 4 4 5 5 5 6 5 3 3 3 3 3 3 3 1 4 4 4 4 4 3 1 2 3 1 1 1 1 1 2 3 2 2 3 4 1 1 7 4 4 3 2 3 6 5 5 6 5 5 5 7 7 5 6 5 2 3 5 3 3 4 4 4 1 4 5 5 5 5 4 3 2 2 3 3 4 6 7 7
7 3 2 2 1 3 5 4 4 4 4 5 5 6 5 2 1 3 2 2 1 3 4 5 5 5 5 4 3 3 1 1 0 1 1 2 1 2 2 3 3 2 3 3 1 2 6 3 5 4 3 3 2 3 4 7 5 3 5 7 3 2 6 5 1 2 1 7 6 4 6 4 3 4 7 7 6 7 6 4 4 3 4 4 5 7 7 8
6 3 2 3 1 5 4 3 5 5 4 5 6 4 2 1 1 1 1 1 1 1 4 6 3 3 4 4 4 5 2 1 1 2 2 3 1 2 3 3 2 3 4 3 2 0 4 5 2 3 3 3 1 3 5 5 5 4 5 5 1 1 5 6 5 3 4 8 7 6 8 8 6 4 7 9 9 8 7 6 6 5 4 5 6 7 7 8
6 4 3 2 6 6 2 4 5 5 4 5 5 3 2 2 1 1 1 0 2 3 6 6 2 2 3 4 4 4 1 3 2 2 3 3 1 1 1 2 2 2 4 4 3 1 2 7 3 2 2 3 4 4 5 5 6 7 4 2 3 5 6 6 6 6 7 8 7 8 11 9 8 5 8 11 11 10 9 7 7 6 6 6 6 7 8 9
4 4 4 4 10 4 5 4 4 5 4 6 6 3 3 3 3 2 1 1 3 5 5 4 2 2 3 3 2 3 1 3 1 1 3 2 1 1 0 0 1 2 3 4 3 1 1 5 2 4 3 1 4 6 7 6 7 6 4 4 5 5 6 6 6 6 7 8 8 9 10 8 7 6 8 11 11 11 10 8 7 7 7 6 6 7 7 8
3 4 3 6 11 1 5 3 4 5 5 5 4 2 3 4 5 3 0 2 3 3 3 3 3 3 4 3 2 2 2 3 3 2 2 2 2 2 2 1 1 2 2 2 3 1 2 3 4 2 3 3 5 4 5 5 3 5 7 7 7 4 4 5 7 8 7 8 8 8 9 8 4 3 6 9 9 10 10 9 8 7 8 7 7 7 6 7
2 3 3 7 10 1 5 4 5 4 4 4 3 3 3 2 5 5 2 2 2 1 2 3 3 3 3 3 3 3 3 3 4 3 3 3 3 2 2 1 2 3 2 4 3 1 2 3 5 5 4 6 3 3 4 7 5 5 6 7 8 7 6 7 9 8 6 8 9 8 10 7 1 1 3 6 8 9 9 9 8 8 8 8 7 7 7 7
4 3 2 7 9 2 6 5 3 1 4 3 1 2 2 0 3 5 3 3 3 1 1 2 3 3 4 4 3 3 4 4 4 4 3 3 2 1 3 2 2 3 4 4 0 2 2 3 6 7 7 9 3 5 2 4 5 7 7 7 8 7 8 9 9 8 7 8 8 8 10 5 3 4 2 5 8 8 7 7 7 8 7 7 7 7 7 7
3 2 3 7 8 4 7 5 4 3 4 1 1 2 2 0 3 3 3 4 2 2 3 3 2 2 3 3 3 5 5 4 4 3 3 3 2 4 4 2 1 4 4 3 1 3 0 3 6 7 7 9 5 2 3 2 3 7 7 6 6 7 8 8 8 8 7 8 8 8 10 5 4 4 4 6 7 7 6 5 7 7 6 6 6 6 6 6
2 2 2 6 6 5 7 5 5 6 3 3 3 4 3 1 0 1 2 1 1 1 3 2 1 1 1 1 3 5 4 4 5 3 2 3 3 5 3 2 2 3 2 2 1 1 2 4 5 6 7 7 7 6 6 5 6 7 6 4 4 7 8 6 7 7 7 11 12 10 10 5 4 5 4 5 6 7 7 5 6 7 6 6 6 6 5 5
2 2 1 4 5 2 4 2 3 4 3 5 5 4 4 2 3 2 1 2 3 2 1 1 1 0 1 2 3 4 3 4 4 2 2 3 4 4 2 2 2 1 3 5 4 2 4 5 4 6 7 6 7 6 3 3 4 5 4 3 3 5 7 7 8 9 9 11 12 10 10 5 5 7 6 6 7 7 7 7 7 7 7 7 6 6 5 5
2 1 0 1 3 2 1 2 2 3 2 4 4 3 4 4 4 3 2 2 3 2 2 1 1 2 3 4 5 5 5 5 4 3 4 4 4 5 2 1 1 1 3 3 3 2 4 5 6 9 10 8 9 8 4 6 6 6 6 6 5 4 6 7 8 9 9 10 10 11 12 9 5 8 9 8 8 8 8 9 9 8 8 7 6 6 5 4
2 1 3 1 1 2 3 3 2 1 0 2 2 1 2 3 4 2 1 2 2 2 1 1 1 3 4 5 6 5 5 5 5 5 4 3 3 5 3 2 2 2 2 1 1 2 4 6 8 11 12 12 13 13 9 8 10 12 11 10 9 7 7 8 9 10 10 9 10 10 10 11 8 8 10 9 8 8 8 10 10 9 9 8 7 6 6 5
2 1 3 2 2 2 2 3 4 3 2 0 1 1 1 3 3 2 2 2 1 1 1 1 2 2 2 3 4 5 5 6 6 5 4 3 3 4 4 5 4 1 2 3 1 2 5 7 8 10 12 13 14 13 11 10 11 13 13 12 11 10 11 11 12 13 12 10 11 11 10 10 8 7 10 9 8 9 8 9 9 9 9 9 9 8 7 6
3 2 2 2 2 3 3 3 3 2 3 2 1 1 0 1 3 3 2 1 2 1 2 2 3 1 1 1 4 5 4 3 4 4 3 2 3 4 4 5 5 4 4 2 1 1 4 5 6 9 13 14 14 14 14 13 13 14 15 15 14 13 14 13 13 14 15 15 15 13 11 9 7 8 10 6 5 8 6 7 8 9 10 10 10 10 8 7
3 3 3 2 1 3 3 2 2 1 1 1 1 2 2 1 3 4 3 3 1 2 2 1 2 2 1 0 2 1 2 3 1 2 1 1 2 2 3 1 2 4 4 2 0 1 3 3 2 6 11 12 13 15 15 15 15 16 17 17 16 15 15 14 13 12 13 15 14 11 10 9 8 10 10 2 1 4 6 8 9 9 10 10 10 10 8 7
4 2 3 4 1 3 3 2 2 2 1 2 2 2 2 2 3 4 4 5 5 4 4 3 2 1 1 2 3 4 5 5 3 3 3 3 2 1 2 2 2 2 3 2 1 2 3 5 4 6 10 10 11 14 15 15 16 18 18 17 17 16 14 12 12 11 11 11 11 11 12 10 7 10 11 6 3 6 8 9 9 8 9 10 10 9 8 7
6 1 3 4 1 3 3 1 1 2 1 3 4 3 3 4 3 1 2 3 4 5 6 5 3 2 3 3 5 6 6 5 5 4 4 4 4 4 3 3 4 4 4 3 2 2 4 6 6 8 10 9 9 10 10 10 12 13 11 10 13 16 16 15 14 14 13 12 10 10 9 6 5 4 8 9 9 9 8 7 7 8 8 10 10 9 8 7
Wind_Direction
326 322 322 322 318 311 308 309 307 306 307 308 308 306 307 309 307 308 311 313 311 302 302 307 307 309 305 306 308 306 313 313 291 253 235 247 257 230 234 203 177 164 153 161 174 182 183 196 188 186 200 188 209 187 168 197 200 215 226 234 238 229 225 194 240 310 342 332 338 342 357 338 336 228 217 210 214 201 173 171 144 139 110 102 124 132 142 145
327 325 324 321 318 313 312 313 310 309 307 306 305 304 306 305 304 304 305 305 304 300 299 303 306 308 305 308 310 310 317 301 272 253 240 249 257 236 211 164 166 158 158 174 182 189 194 192 180 188 203 190 184 173 174 180 202 229 235 235 241 239 224 29 315 318 313 309 323 327 340 336 328 321 221 216 196 180 175 168 162 153 128 128 133 138 144 147
328 324 322 318 319 317 316 315 312 312 308 307 306 304 302 300 301 299 300 298 296 298 297 302 305 305 308 310 309 315 317 288 260 233 221 261 252 220 180 159 164 161 169 183 182 192 201 181 179 193 205 201 186 186 190 177 196 225 237 239 238 258 291 298 276 285 300 312 315 318 326 324 323 317 250 228 191 183 187 172 173 167 146 143 141 144 150 151
326 321 320 317 316 315 314 314 313 313 310 309 306 303 302 299 298 297 297 294 292 295 296 301 301 304 311 310 308 317 304 270 228 102 107 308 269 197 165 155 160 164 175 177 167 176 180 170 182 201 211 201 179 197 200 177 192 204 219 250 272 359 277 261 254 281 302 309 308 311 314 322 5 250 254 230 193 195 199 177 178 171 152 149 147 152 155 154
322 318 317 314 312 312 311 312 314 313 311 309 304 302 299 294 292 291 289 287 288 291 295 298 301 309 310 309 314 306 278 256 105 66 333 309 262 177 159 153 157 159 167 168 159 167 179 180 185 198 214 200 175 199 197 175 209 225 222 257 294 291 271 276 292 300 307 301 295 300 309 334 328 246 242 227 208 198 185 163 172 171 156 151 153 157 156 156
318 315 314 312 311 310 311 313 315 314 315 312 308 305 297 290 288 286 286 286 285 286 290 297 303 309 310 319 326 267 260 359 63 351 342 348 160 157 155 152 154 156 164 169 167 183 184 187 194 194 208 202 190 200 178 169 211 243 225 241 266 267 277 287 291 292 296 289 289 303 319 321 280 242 220 226 220 46 90 134 144 161 155 150 154 159 155 157
318 314 312 311 310 310 312 312 312 313 313 311 310 306 297 289 286 284 285 285 286 286 287 299 305 309 323 335 305 243 249 47 44 344 359 116 139 146 151 150 154 162 173 178 180 193 186 195 204 195 205 199 199 197 163 181 211 245 246 235 254 267 273 273 280 282 280 282 289 300 300 285 270 246 199 211 136 50 108 141 132 141 148 150 155 161 157 160
317 314 311 309 309 309 309 311 310 310 311 309 307 304 298 292 286 282 280 281 284 284 287 299 303 317 340 333 274 231 136 42 22 348 128 140 140 144 146 148 163 173 186 191 189 197 189 195 189 193 213 171 183 190 175 206 210 232 255 258 259 263 260 264 276 278 277 278 286 281 273 278 278 291 193 184 114 71 144 151 143 138 147 155 158 165 163 163
315 313 310 307 308 307 308 309 308 309 310 308 306 304 303 297 288 279 277 279 282 283 289 295 300 334 344 305 270 236 62 17 355 48 149 149 146 148 148 155 174 182 190 192 198 206 196 190 158 212 237 122 173 188 183 224 208 210 247 262 260 260 261 276 280 273 272 271 279 259 245 265 178 205 178 139 97 97 142 153 150 147 153 160 161 168 168 164
315 312 309 308 308 309 312 311 309 308 304 304 302 300 301 299 292 283 282 278 278 282 283 295 314 346 321 271 267 196 62 7 52 117 155 158 151 155 164 169 177 188 188 185 200 206 198 157 117 242 256 136 186 190 190 237 276 171 254 272 266 267 272 283 273 260 247 234 258 243 171 98 174 210 168 114 107 137 148 150 154 154 156 160 163 167 169 167
315 312 310 310 309 310 313 316 314 308 304 303 297 294 294 295 291 284 287 280 270 274 280 299 315 348 300 267 281 88 84 25 118 123 157 165 162 166 178 179 187 198 185 184 195 196 173 69 53 255 212 153 184 185 193 249 330 263 273 272 251 246 244 252 241 221 215 182 225 241 145 127 186 196 82 97 135 166 161 158 164 164 156 160 164 165 169 171
314 312 310 307 307 309 315 321 315 307 305 300 295 295 290 288 289 286 292 286 270 269 275 297 320 352 294 261 334 79 109 106 138 134 150 168 177 183 190 190 201 210 195 192 184 188 247 323 290 271 132 174 192 176 170 243 274 263 273 270 234 200 185 183 168 176 200 152 87 256 192 166 168 90 72 101 153 177 178 168 168 168 161 162 164 167 175 176
314 312 307 303 304 310 316 317 308 305 302 298 295 292 288 285 281 278 282 278 268 269 271 302 337 325 276 251 76 99 145 136 150 146 153 171 184 188 197 195 196 210 216 199 145 196 246 262 286 302 359 252 192 107 231 227 253 249 241 261 239 193 165 114 134 170 169 94 338 250 217 167 134 83 78 116 162 180 182 174 171 169 164 165 166 172 178 177
313 309 304 302 306 309 310 306 303 306 305 303 296 290 289 282 275 272 273 271 263 263 267 316 349 283 261 90 99 176 166 144 169 168 170 175 173 167 180 188 188 200 216 215 67 299 249 244 267 269 257 265 332 329 242 210 222 228 213 231 232 204 136 100 113 178 160 103 282 244 238 170 126 95 79 109 171 189 184 176 176 170 166 168 168 175 177 176
309 304 300 301 302 297 296 295 298 305 307 306 301 298 291 275 272 263 257 265 263 269 302 298 318 276 246 117 124 205 140 168 181 186 187 183 178 164 169 184 189 198 208 226 254 311 218 225 249 248 193 224 249 242 222 192 195 213 215 193 206 214 123 106 82 54 128 117 223 246 248 179 121 88 75 111 180 199 197 178 179 178 173 175 174 181 180 175
306 298 296 296 292 288 286 289 297 305 307 309 308 305 286 261 252 242 236 230 235 116 57 257 245 266 268 113 131 171 169 180 169 183 191 194 197 154 149 166 174 191 201 215 222 205 216 230 252 294 251 204 225 238 218 199 183 199 235 184 186 216 151 130 107 62 72 135 180 234 258 214 112 92 88 125 193 204 207 181 181 186 179 183 184 184 184 177
303 295 292 287 281 281 282 286 297 303 307 318 319 316 275 240 217 216 216 209 221 134 233 271 262 265 280 112 152 162 145 146 104 154 180 193 201 153 151 162 161 172 179 176 190 196 210 225 221 243 238 221 234 247 230 216 182 183 221 171 164 234 206 148 130 94 52 218 171 198 256 280 99 127 120 144 201 211 214 189 182 191 186 190 193 191 189 183
302 294 286 278 276 275 276 284 292 299 314 320 311 81 108 170 148 159 182 149 162 199 231 258 258 251 159 148 175 116 102 139 133 150 166 176 184 180 182 180 159 160 168 166 175 193 198 207 230 226 207 204 218 237 238 229 171 187 201 192 166 196 239 170 122 77 26 230 177 190 235 240 110 182 161 164 203 217 219 201 193 196 194 196 200 202 197 191
301 291 281 275 273 269 268 277 284 297 314 285 170 121 113 119 115 202 208 197 210 236 232 176 219 275 117 140 104 36 40 168 161 161 161 166 176 191 204 207 192 185 191 185 168 188 215 209 221 230 206 181 175 293 317 9 3 290 227 248 206 186 211 143 86 53 15 258 204 203 243 245 162 168 157 170 205 224 218 205 211 207 203 205 206 209 205 202
301 290 280 271 265 261 258 264 280 295 279 194 168 189 208 212 209 193 201 217 234 292 319 201 240 280 303 110 44 355 163 169 177 165 162 169 174 181 188 200 207 209 224 220 146 155 265 241 222 238 46 60 52 353 345 2 341 283 243 241 234 226 208 129 98 68 12 290 203 149 281 255 275 78 139 169 200 223 218 208 216 217 216 215 213 215 211 209
305 292 276 263 255 251 243 254 275 283 228 170 192 230 329 354 336 5 326 235 211 273 284 280 291 276 283 320 315 327 179 173 165 151 157 172 184 187 177 193 219 212 194 166 119 142 245 249 215 67 45 59 104 157 176 268 255 244 241 231 223 232 207 114 104 87 25 292 198 147 263 238 205 184 138 167 206 218 217 214 217 219 225 229 226 224 219 213
313 289 266 251 245 228 218 243 227 182 140 155 210 244 44 29 351 333 304 273 185 210 261 247 263 267 268 267 264 277 243 182 154 153 159 178 198 202 168 191 230 200 139 178 201 188 224 239 115 98 93 108 138 178 198 215 224 229 232 234 228 220 195 127 129 128 44 284 242 159 264 248 205 223 183 185 209 209 213 227 227 222 226 231 231 230 226 219
320 288 257 242 229 210 218 216 183 179 161 176 229 265 71 31 333 262 252 278 199 161 215 218 233 239 212 210 187 209 227 186 165 161 164 189 201 215 202 198 222 168 166 204 223 236 233 146 113 115 142 164 164 179 198 203 213 224 222 228 224 176 217 194 149 151 130 294 296 294 271 261 221 219 212 192 200 194 194 232 242 245 243 243 246 241 234 225
330 286 248 233 207 208 206 177 194 207 183 209 246 58 54 316 308 245 236 276 232 141 176 203 248 240 176 114 168 202 220 143 209 150 160 199 189 171 223 211 211 204 192 201 231 259 264 92 110 147 186 208 191 176 200 217 206 204 221 240 237 167 236 262 126 154 179 184 272 274 258 251 220 216 207 174 186 208 201 208 213 226 239 246 255 252 243 236
335 279 243 223 196 183 166 182 223 216 196 213 223 178 324 324 305 236 240 261 163 134 159 172 207 200 113 120 170 212 238 169 246 114 160 210 203 164 197 197 237 218 158 176 229 247 100 89 136 194 201 214 208 193 204 231 232 195 207 231 248 228 223 252 203 212 231 197 182 278 264 242 188 208 202 165 182 191 180 194 201 196 209 222 237 244 244 242
337 280 240 219 195 169 161 199 175 195 224 213 184 219 325 330 299 210 241 248 151 129 167 177 184 149 138 166 167 214 231 163 75 91 172 214 246 242 207 167 228 260 122 194 243 268 97 119 190 214 213 208 221 223 193 217 249 216 185 205 226 231 215 225 222 226 255 232 132 264 271 257 184 197 172 158 195 188 168 174 181 191 208 218 234 241 246 247
338 284 241 220 195 180 186 318 146 217 245 181 119 323 332 330 229 179 234 219 141 113 181 157 121 120 123 148 185 224 215 120 113 132 176 208 196 242 234 180 188 150 151 228 233 146 131 150 175 205 221 217 228 226 173 208 246 253 129 192 206 210 208 215 225 233 266 298 177 213 257 274 246 205 144 158 224 213 189 175 161 169 203 241 268 268 273 275
337 284 242 227 212 215 247 299 260 251 286 62 10 323 334 319 179 185 250 194 117 143 185 114 83 131 133 161 216 247 10 107 168 121 127 197 196 232 235 215 231 147 164 249 251 127 160 187 191 208 229 233 234 162 147 211 236 53 86 203 202 203 207 209 232 246 252 281 246 205 207 257 253 211 156 184 221 210 188 172 152 134 125 243 292 292 294 291
336 282 247 237 229 236 249 257 259 272 355 11 328 329 327 217 188 228 258 210 114 178 145 98 141 162 181 175 193 233 233 243 312 94 136 182 199 254 263 230 269 175 172 249 287 99 166 214 228 236 245 246 241 50 93 224 227 101 146 187 184 191 205 212 243 254 209 250 263 206 178 258 266 223 190 195 212 198 158 141 119 78 55 20 348 320 307 299
339 284 246 235 231 241 245 241 248 261 302 312 326 331 273 202 212 240 221 217 153 146 130 189 179 209 210 185 165 161 184 144 75 133 161 164 177 206 343 49 244 233 198 235 263 250 148 138 243 247 253 275 59 70 33 269 159 143 175 186 184 190 202 216 240 258 243 248 251 157 165 258 272 237 209 176 81 44 34 105 50 23 3 357 351 334 326 321
342 286 234 227 220 221 232 214 209 229 282 320 329 297 227 208 242 238 199 200 177 152 163 162 141 197 199 183 145 135 149 114 106 188 178 160 179 185 191 197 212 232 226 220 226 211 192 192 184 208 230 241 179 151 119 178 183 189 201 207 208 206 207 226 223 218 247 253 160 115 156 227 252 245 163 101 74 51 359 333 358 348 344 348 341 335 335 327
345 287 221 228 224 217 233 266 188 245 300 324 314 249 227 223 232 231 168 178 200 165 159 123 92 123 164 138 103 121 141 102 91 233 172 185 194 160 215 259 267 239 236 215 200 231 226 201 152 155 190 211 218 198 159 176 200 212 221 223 230 228 220 236 236 227 243 235 110 116 163 222 250 243 122 117 92 69 35 354 348 342 342 342 336 337 336 332
347 298 215 225 229 228 248 274 259 262 306 316 278 236 237 240 232 229 159 183 163 75 102 68 58 107 205 175 112 104 149 96 78 159 104 236 211 113 84 13 325 268 266 307 275 267 231 146 142 173 170 195 224 218 186 191 199 212 223 227 238 243 237 241 242 245 250 174 108 126 173 237 248 181 104 111 93 76 65 37 8 350 340 334 334 340 344 349
349 308 227 230 239 243 262 271 256 259 291 285 246 219 229 236 227 81 185 166 86 85 111 69 178 155 173 146 86 49 184 100 58 202 181 218 212 146 119 98 358 268 263 268 273 279 265 178 153 183 128 171 220 241 279 277 212 217 233 238 245 251 251 256 257 257 260 206 121 138 183 245 243 114 89 101 108 103 94 79 59 9 343 338 344 352 360 5
346 323 263 245 244 267 284 279 251 234 257 258 233 219 227 229 195 187 191 131 117 158 142 156 222 189 142 114 84 30 337 82 81 220 227 236 215 119 110 90 54 288 257 250 211 247 270 264 102 86 85 169 222 250 287 281 236 214 230 238 246 254 250 259 290 307 296 277 189 178 220 253 192 114 115 128 132 129 119 108 107 63 35 24 18 16 13 15
340 312 279 203 211 303 294 271 213 199 239 247 230 226 231 260 236 189 163 110 159 171 164 180 215 213 182 159 141 113 36 7 79 224 160 92 81 85 100 75 43 318 289 278 223 198 257 248 106 117 155 164 275 284 234 254 257 196 222 238 248 290 261 253 224 93 294 268 254 227 236 232 186 166 155 156 159 149 145 142 128 93 71 60 40 25 18 22
325 268 230 159 329 311 284 221 180 198 242 246 238 243 245 309 332 170 102 98 211 219 216 205 203 233 205 179 167 142 141 210 204 243 198 141 118 97 120 106 48 339 332 314 273 272 280 267 182 199 208 124 52 274 219 233 261 245 237 238 181 249 254 247 249 227 222 253 253 223 231 236 235 210 161 169 179 166 161 153 134 114 94 74 56 39 29 28
312 252 194 99 349 317 224 159 175 212 246 239 234 250 248 207 155 140 108 201 225 217 232 229 204 246 229 203 173 136 164 225 174 234 241 183 159 89 132 142 104 17 346 300 265 70 291 270 229 187 246 129 150 236 229 198 227 260 284 259 221 245 239 222 242 250 242 253 255 237 237 240 246 225 166 180 189 172 165 160 145 125 100 82 67 53 39 33
288 239 190 43 358 324 174 161 198 229 242 236 234 219 207 187 139 127 210 235 228 214 227 235 207 216 226 225 199 141 197 262 215 236 249 208 154 113 54 222 131 53 2 293 284 56 243 267 248 132 119 174 203 228 239 208 196 229 261 243 234 261 262 242 243 255 256 261 262 258 252 243 250 236 188 192 190 173 168 160 144 121 103 91 77 62 47 40
269 258 178 38 4 359 155 173 226 235 231 240 264 221 176 172 153 140 274 265 240 230 240 226 202 220 211 208 246 201 194 259 255 251 243 201 162 142 109 357 290 13 14 258 265 297 220 248 259 201 141 227 238 224 263 278 233 221 232 231 226 232 256 259 250 248 257 263 263 265 262 255 265 255 213 203 183 170 167 156 141 124 113 101 87 75 61 52
254 262 155 35 3 99 160 214 223 237 238 239 275 216 173 175 171 154 151 251 259 298 300 253 221 229 211 205 226 204 201 238 237 247 239 206 205 190 99 45 310 331 304 236 223 261 267 244 257 262 237 244 251 68 359 333 324 282 260 247 243 239 243 252 250 243 242 257 263 264 267 270 348 50 227 193 166 162 160 152 142 129 118 108 95 88 78 69
246 258 126 17 353 171 194 234 200 231 252 239 264 173 124 48 192 163 158 211 235 214 242 252 237 234 223 230 239 211 223 241 228 238 243 216 200 121 92 65 288 279 280 271 211 73 332 273 259 263 258 261 289 67 34 319 307 287 273 267 267 256 248 250 255 256 249 255 265 265 266 273 76 77 103 134 142 145 142 142 142 129 116 110 102 95 90 83
264 303 95 8 348 185 207 240 194 211 238 203 76 109 100 191 202 184 183 203 226 209 207 208 212 237 226 229 244 223 224 239 232 242 249 212 131 85 79 60 258 238 251 269 138 120 218 259 256 258 256 260 259 154 155 189 253 261 250 252 268 267 265 267 273 281 271 260 262 259 257 248 111 94 103 119 129 132 130 140 146 136 122 116 111 102 95 90
316 303 107 11 359 192 216 249 223 225 206 159 173 154 125 78 64 218 208 199 355 232 218 195 168 243 177 184 242 225 212 229 224 225 250 222 138 91 66 20 297 247 262 338 12 141 244 251 252 263 261 251 236 213 200 195 216 245 251 257 281 279 279 279 275 276 262 256 257 254 259 253 128 127 153 145 150 155 151 156 156 148 144 136 124 115 107 99
298 249 174 26 27 164 223 295 277 254 187 174 191 167 158 137 67 13 350 51 28 336 280 116 102 24 158 168 215 208 205 244 239 202 213 210 148 119 90 11 311 286 49 19 343 268 257 265 257 262 262 253 248 243 238 238 236 240 251 262 279 278 274 269 263 256 250 256 257 252 261 262 134 151 178 166 172 177 162 161 167 160 155 148 138 132 126 115
294 257 159 71 55 73 98 47 323 275 199 189 192 167 203 185 113 50 356 56 51 11 359 63 122 216 189 190 216 211 202 221 240 229 216 207 165 136 113 57 340 22 50 24 324 257 254 264 255 256 261 265 272 281 327 340 298 270 265 261 258 268 274 269 260 254 256 261 253 247 259 262 205 187 198 191 191 192 176 173 176 169 161 156 150 145 139 132
316 347 8 352 50 79 101 78 26 322 159 234 226 148 212 195 141 111 19 41 47 37 8 51 199 222 210 208 221 221 207 203 217 231 227 218 174 134 128 179 151 33 340 245 250 256 253 254 250 252 258 264 273 281 296 304 287 277 277 273 265 263 260 256 256 263 273 268 255 256 262 256 242 230 229 220 204 196 188 184 182 174 169 164 158 157 154 150
17 22 23 334 317 41 55 28 15 30 77 75 271 99 174 188 159 127 89 81 79 9 297 204 182 225 230 223 229 216 204 206 209 215 214 213 209 180 174 182 166 156 257 215 172 276 264 262 258 255 259 262 265 269 271 272 271 271 272 271 268 262 253 249 251 259 267 263 262 279 278 250 241 260 264 249 225 216 206 191 182 173 170 169 167 171 172 165
25 45 41 322 326 36 30 355 337 358 56 55 49 72 88 157 121 92 53 42 162 89 325 225 170 115 106 225 252 225 199 216 206 192 198 194 207 221 211 187 171 180 214 213 107 345 279 274 270 266 268 268 265 264 262 260 261 263 262 261 261 260 256 255 254 255 259 259 263 282 289 265 251 271 279 275 240 236 221 184 178 175 173 174 176 180 180 172
12 19 359 308 9 48 27 356 307 271 76 40 42 81 67 70 98 98 53 6 38 80 345 262 137 78 68 148 254 181 68 3 3 105 50 232 194 226 247 248 172 185 207 251 106 155 257 279 305 281 274 270 268 266 261 257 259 260 259 257 257 258 257 255 255 254 255 260 265 274 279 271 259 259 263 275 103 230 211 182 181 180 178 179 183 187 182 171
352 340 321 301 358 19 356 18 336 278 99 58 36 63 67 67 75 91 77 40 25 38 13 350 36 70 193 131 86 68 47 7 351 25 345 287 291 316 289 339 339 245 237 269 248 188 246 266 276 270 268 269 268 264 261 264 268 265 259 254 252 252 253 252 252 249 245 252 261 261 263 270 269 249 245 233 202 225 220 200 188 181 180 184 186 187 182 174
348 297 294 289 318 18 348 2 341 298 52 42 34 51 57 66 80 105 102 71 46 39 23 357 342 285 215 133 68 28 2 334 320 329 317 292 300 304 290 301 300 283 278 280 267 253 262 270 272 266 267 274 273 269 273 279 274 268 263 254 245 245 250 253 253 251 246 245 254 258 265 300 331 278 254 252 243 236 229 209 187 179 181 187 189 187 180 170